Regional Weather Roundup
Issued by NWS

Current Version | Previous Version | Text Only | Print | Product List | Glossary Off
Versions: 1 2 3 4 5 6 7 8 9 10 11 12 13 14 15 16 17 18 19 20 21 22 23 24 25 26 27 28 29 30 31 32 33 34 35 36 37 38 39 40 41 42 43 44 45 46 47 48 49

000
ASUS44 KBMX 290710
RWRAL

ALABAMA REGIONAL WEATHER ROUNDUP
NATIONAL WEATHER SERVICE BIRMINGHAM AL
200 AM CDT FRI AUG 29 2014

NOTE: "FAIR" INDICATES FEW OR NO CLOUDS BELOW 12,000 FEET
WITH NO SIGNIFICANT WEATHER AND/OR OBSTRUCTIONS TO VISIBILITY.

THE REMARK "TC" DENOTES TEMPERATURE IN DEGREES CELSIUS.

ALZ001>011-014-016>018-020-290800-
NORTH ALABAMA

CITY           SKY/WX    TMP DP  RH WIND       PRES   REMARKS
MUSCLE SHOALS  CLEAR     68  64  87 CALM      30.00F
HUNTSVILLE     CLEAR     73  67  81 CALM      30.01S
DECATUR        CLEAR     67  64  90 CALM      30.01F
HALEYVILLE     FAIR      73  61  66 SE7       30.04S
GADSDEN        CLEAR     63  59  88 CALM      30.02S
$$

ALZ012-013-022-023-030>036-040>044-290800-
WEST CENTRAL ALABAMA

CITY           SKY/WX    TMP DP  RH WIND       PRES   REMARKS
TUSCALOOSA     CLEAR     70  65  84 CALM      29.99F
$$

ALZ015-024>027-033>036-040>044-290800-
CENTRAL ALABAMA

CITY           SKY/WX    TMP DP  RH WIND       PRES   REMARKS
BIRMINGHAM     CLEAR     70  61  73 CALM      30.03F
MONTGOMERY     MOCLDY    71  67  87 CALM      30.01S
SHELBY CO ARPT PTCLDY    69  64  84 CALM      30.01F
MAXWELL AFB    MOCLDY    71  71 100 W2        30.00S
GREENVILLE     FAIR      70  66  87 CALM      30.01F
$$

ALZ019-021-028-029-037-038-045>048-290800-
EAST CENTRAL ALABAMA

CITY           SKY/WX    TMP DP  RH WIND       PRES   REMARKS
ANNISTON       CLEAR     67  63  87 E3        30.02F
ALEXANDER CITY CLEAR     71  65  83 CALM      30.02F
AUBURN         CLEAR     66  57  72 CALM      30.06S
$$

ALZ051>064-290800-
SOUTHWEST ALABAMA

CITY           SKY/WX    TMP DP  RH WIND       PRES   REMARKS
MOBILE         CLEAR     72  72 100 CALM      29.98F
BROOKLEY FIELD PTCLDY    80  73  79 E8        29.99S
EVERGREEN      PTCLDY    71  67  87 CALM      30.01S
$$

ALZ049-050-065>069-290800-
SOUTHEAST ALABAMA

CITY           SKY/WX    TMP DP  RH WIND       PRES   REMARKS
DOTHAN         MOCLDY    72  66  81 CALM      30.05F
OZARK          MOCLDY    72  67  86 NE2       30.01F
TROY           PTCLDY    68  66  93 CALM      30.02F
EUFAULA        FAIR      65  64  97 CALM      30.00F
$$


USA.gov is the U.S. government's official web portal to all federal, state and local government web resources and services.